Weather History for KBRD - January, 2012

Change the Weather History Date:

Monday, January 9, 2012

  Actual Average Record
Temperature  
Mean Temperature 36 °F -  
Max Temperature 48 °F 15 °F 48 °F (2012)
Min Temperature 21 °F -11 °F -44 °F (1977)
Degree Days  
Heating Degree Days 29    
Moisture  
Dew Point 23 °F    
Average Humidity 61    
Maximum Humidity 88    
Minimum Humidity 44    
Precipitation  
Precipitation 0.00 in - - ()
Sea Level Pressure  
Sea Level Pressure 29.89 in    
Wind  
Wind Speed 11 mph (WSW)    
Max Wind Speed 17 mph    
Max Gust Speed 24 mph    
Visibility 10 miles    
Events      
Averages and records for this station are not official NWS values.
T = Trace of Precipitation, MM = Missing Value Source: NWS Daily Summary

Daily Weather History Graph

Daily Weather History Graph

Search for Another Location

Airport or City:

Trip Planner

Search our weather history database for the weather conditions in past years. The results will help you decide how hot, cold, wet, or windy it might be!

Date:

Astronomy

Jan. 09, 2012 Rise Set
Actual Time 7:58 AM CST 4:48 PM CST
Civil Twilight 7:24 AM CST 5:22 PM CST
Nautical Twilight 6:46 AM CST 6:00 PM CST
Astronomical Twilight 6:10 AM CST 6:36 PM CST
Moon 5:39 PM CST (1/9) 7:56 AM CST (1/9)
Length of Visible Light 9h 58m
Length of Day
8h 49m
Full, 100% of the Moon is Illuminated
Jan 9
Full
Jan 16
Last Quarter
Jan 23
New
Jan 30
First Quarter
Feb 7
Full

Hourly Weather History & Observations

Time (CST) Temp. Windchill Dew Point Humidity Pressure Visibility Wind Dir Wind Speed Gust Speed Precip Events Conditions
12:53 AM 36.0 °F 27.5 °F 25.0 °F 64% 29.92 in 10.0 mi SW 12.7 mph 20.7 mph N/A   Overcast
1:53 AM 37.0 °F 28.5 °F 23.0 °F 57% 29.87 in 10.0 mi SSW 13.8 mph 24.2 mph N/A   Scattered Clouds
2:53 AM 37.0 °F 29.3 °F 21.0 °F 52% 29.86 in 10.0 mi SW 11.5 mph - N/A   Mostly Cloudy
3:53 AM 37.9 °F 29.2 °F 19.9 °F 48% 29.83 in 10.0 mi SW 15.0 mph - N/A   Overcast
4:53 AM 34.0 °F 26.0 °F 19.0 °F 54% 29.83 in 10.0 mi WSW 10.4 mph - N/A   Scattered Clouds
5:53 AM 34.0 °F 25.0 °F 19.0 °F 54% 29.83 in 10.0 mi West 12.7 mph - N/A   Clear
6:53 AM 34.0 °F 26.0 °F 19.9 °F 56% 29.85 in 10.0 mi West 10.4 mph - N/A   Clear
7:53 AM 32.0 °F 23.6 °F 19.9 °F 61% 29.85 in 10.0 mi West 10.4 mph - N/A   Clear
8:53 AM 33.1 °F 26.1 °F 21.0 °F 61% 29.86 in 10.0 mi West 8.1 mph - N/A   Clear
10:53 AM 39.0 °F 29.9 °F 23.0 °F 53% 29.88 in 10.0 mi West 17.3 mph 21.9 mph N/A   Clear
11:53 AM 42.1 °F 35.2 °F 25.0 °F 51% 29.87 in 10.0 mi West 12.7 mph 20.7 mph N/A   Clear
12:53 PM 45.0 °F 38.5 °F 26.1 °F 48% 29.86 in 10.0 mi West 13.8 mph 18.4 mph N/A   Clear
2:53 PM 48.0 °F - 27.0 °F 44% 29.87 in 10.0 mi WNW 12.7 mph 19.6 mph N/A   Clear
3:53 PM 46.9 °F - 27.0 °F 46% 29.89 in 10.0 mi WNW 12.7 mph - N/A   Clear
4:53 PM 42.1 °F 37.7 °F 26.1 °F 53% 29.93 in 10.0 mi West 6.9 mph - N/A   Clear
5:53 PM 37.9 °F 34.4 °F 27.0 °F 65% 29.94 in 10.0 mi West 4.6 mph - N/A   Clear
6:53 PM 32.0 °F 26.4 °F 25.0 °F 75% 29.96 in 10.0 mi WSW 5.8 mph - N/A   Clear
8:53 PM 30.0 °F 26.5 °F 24.1 °F 79% 29.97 in 10.0 mi SW 3.5 mph - N/A   Clear
9:53 PM 24.1 °F - 19.9 °F 84% 29.96 in 10.0 mi Calm Calm - N/A   Clear
10:53 PM 24.1 °F - 21.0 °F 88% 29.94 in 10.0 mi Calm Calm - N/A   Clear
11:53 PM 21.9 °F 15.7 °F 18.0 °F 85% 29.96 in 10.0 mi SW 4.6 mph - N/A   Clear